DW8463 Weather Reports


time (UTC)temp
C
wind
direction
speed
KPH
gust
KPH
rain 1hr
cm
rain 24hr
cm
rain mn
cm
humidity
%
barometer
mb
20260904231304 31 3 8.0 16.1 0.00 0.00 0.00 77 1009.4
20260904230304 31 343 6.4 14.5 0.00 0.00 0.00 77 1009.2
20260904225803 31 356 9.7 19.3 0.00 0.00 0.00 74 1009.2
20260904225305 31 321 9.7 19.3 0.00 0.00 0.00 74 1009.1
20260904224804 31 338 11.3 19.3 0.00 0.00 0.00 74 1009.1
20260904224304 32 338 4.8 16.1 0.00 0.00 0.00 74 1009.1
20260904223803 32 335 8.0 14.5 0.00 0.00 0.00 74 1009.0
20260904223304 32 7 8.0 14.5 0.00 0.00 0.00 74 1008.9
20260904222803 32 357 9.7 19.3 0.00 0.00 0.00 74 1008.9
20260904221304 33 238 1.6 8.0 0.00 0.00 0.00 74 1008.8
20260904220803 33 294 3.2 11.3 0.00 0.00 0.00 74 1008.7
20260904220303 33 266 4.8 14.5 0.00 0.00 0.00 74 1008.7
20260904215803 33 301 3.2 12.9 0.00 0.00 0.00 70 1008.6
20260904215305 33 277 6.4 12.9 0.00 0.00 0.00 70 1008.6
20260904214803 33 7 0.0 4.8 0.00 0.00 0.00 70 1008.6
20260904214303 33 352 3.2 8.0 0.00 0.00 0.00 70 1008.7
20260904213804 33 322 3.2 4.8 0.00 0.00 0.00 70 1008.7
20260904213303 33 324 6.4 11.3 0.00 0.00 0.00 70 1008.7
20260904212804 33 316 8.0 14.5 0.00 0.00 0.00 70 1008.6
20260904212306 33 340 4.8 12.9 0.00 0.00 0.00 70 1008.6
20260904211804 33 298 3.2 9.7 0.00 0.00 0.00 70 1008.6
20260904211304 33 322 3.2 4.8 0.00 0.00 0.00 70 1008.6
20260904210803 33 309 4.8 9.7 0.00 0.00 0.00 70 1008.5
20260904210303 33 323 1.6 14.5 0.00 0.00 0.00 70 1008.5
20260904205305 33 229 0.0 3.2 0.00 0.00 0.00 67 1008.5
20260904204804 33 319 3.2 8.0 0.00 0.00 0.00 67 1008.5
20260904204303 33 305 1.6 3.2 0.00 0.00 0.00 67 1008.6
20260904203304 33 112 3.2 8.0 0.00 0.00 0.00 67 1008.6
20260904201804 33 30 3.2 8.0 0.00 0.00 0.00 67 1008.7
20260904201303 33 59 0.0 4.8 0.00 0.00 0.00 67 1008.6
20260904200803 33 42 1.6 4.8 0.00 0.00 0.00 67 1008.7
20260904200303 33 317 8.0 12.9 0.00 0.00 0.00 67 1008.6
20260904195803 33 77 6.4 9.7 0.00 0.00 0.00 74 1008.6
20260904195305 33 54 1.6 8.0 0.00 0.00 0.00 74 1008.7
20260904194303 33 337 6.4 16.1 0.00 0.00 0.00 74 1008.7
20260904193804 33 300 3.2 9.7 0.00 0.00 0.00 74 1008.7
20260904193304 33 303 6.4 12.9 0.00 0.00 0.00 74 1008.7
20260904192803 33 29 3.2 8.0 0.00 0.00 0.00 74 1008.7
20260904192306 33 344 6.4 11.3 0.00 0.00 0.00 74 1008.7
20260904191803 33 357 1.6 11.3 0.00 0.00 0.00 74 1008.7
20260904191304 34 321 4.8 4.8 0.00 0.00 0.00 74 1008.8
20260904190803 33 339 1.6 8.0 0.00 0.00 0.00 74 1008.8
20260904190303 33 81 1.6 4.8 0.00 0.00 0.00 74 1008.9
20260904185804 33 33 4.8 8.0 0.00 0.00 0.00 77 1008.8
20260904185306 33 326 3.2 8.0 0.00 0.00 0.00 77 1008.8
20260904184804 33 121 1.6 3.2 0.00 0.00 0.00 77 1008.8
20260904184303 33 335 1.6 4.8 0.00 0.00 0.00 77 1008.8
20260904183803 33 177 3.2 8.0 0.00 0.00 0.00 77 1008.8
20260904182306 33 163 3.2 9.7 0.00 0.00 0.00 77 1008.8
20260904180804 32 24 3.2 11.3 0.00 0.00 0.00 77 1008.9
20260904180303 32 125 1.6 11.3 0.00 0.00 0.00 77 1008.8
20260904175803 32 130 3.2 8.0 0.00 0.00 0.00 77 1008.7
20260904175305 32 160 1.6 8.0 0.00 0.00 0.00 77 1008.7
20260904174303 32 172 3.2 11.3 0.00 0.00 0.00 77 1008.7
20260904172804 32 227 3.2 8.0 0.00 0.00 0.00 77 1008.7
20260904171803 31 121 4.8 9.7 0.00 0.00 0.00 77 1008.7
20260904171303 31 141 4.8 9.7 0.00 0.00 0.00 77 1008.7
20260904170803 31 119 4.8 12.9 0.00 0.00 0.00 77 1008.7
20260904170303 31 164 4.8 8.0 0.00 0.00 0.00 77 1008.7
20260904165305 31 100 3.2 11.3 0.00 0.00 0.00 73 1008.7
20260904164804 31 127 3.2 8.0 0.00 0.00 0.00 73 1008.7
20260904164304 31 124 4.8 9.7 0.00 0.00 0.00 73 1008.7
20260904163803 31 132 1.6 8.0 0.00 0.00 0.00 73 1008.7
20260904163303 31 101 6.4 11.3 0.00 0.00 0.00 73 1008.7
20260904162803 31 200 3.2 8.0 0.00 0.00 0.00 73 1008.8
20260904162306 30 142 3.2 4.8 0.00 0.00 0.00 73 1008.8
20260904161804 31 170 1.6 9.7 0.00 0.00 0.00 73 1008.8
20260904161304 30 91 3.2 4.8 0.00 0.00 0.00 73 1008.8
20260904160803 30 136 0.0 0.0 0.00 0.00 0.00 73 1008.8
20260904155803 30 107 3.2 9.7 0.00 0.00 0.00 80 1008.7
20260904155306 29 17 3.2 11.3 0.00 0.00 0.00 80 1008.7
20260904154803 29 58 1.6 4.8 0.00 0.00 0.00 80 1008.7
20260904154304 29 143 3.2 4.8 0.00 0.00 0.00 80 1008.8
20260904153803 29 90 1.6 4.8 0.00 0.00 0.00 80 1008.8
20260904153303 30 90 3.2 4.8 0.00 0.00 0.00 80 1008.8
20260904152803 28 252 0.0 3.2 0.00 0.00 0.00 80 1008.7
20260904152306 28 248 0.0 1.6 0.00 0.00 0.00 80 1008.8
20260904151804 28 213 0.0 4.8 0.00 0.00 0.00 80 1009.0
20260904151303 28 211 3.2 8.0 0.00 0.00 0.00 80 1009.0
20260904145803 28 0 1.6 8.0 0.00 0.00 0.00 86 1008.9
20260904145305 28 344 4.8 4.8 0.00 0.00 0.00 86 1008.9
20260904144303 27 220 3.2 4.8 0.00 0.00 0.00 86 1008.9
20260904143803 27 290 1.6 4.8 0.00 0.00 0.00 86 1008.8
20260904143303 27 329 1.6 4.8 0.00 0.00 0.00 86 1008.7
20260904142804 27 272 3.2 12.9 0.00 0.00 0.00 86 1008.7
20260904142306 27 270 3.2 4.8 0.00 0.00 0.00 86 1008.7
20260904141803 27 272 1.6 9.7 0.00 0.00 0.00 86 1008.7
20260904141304 26 248 1.6 4.8 0.00 0.00 0.00 86 1008.7
20260904140803 26 303 3.2 8.0 0.00 0.00 0.00 86 1008.6
20260904140303 26 215 1.6 8.0 0.00 0.00 0.00 86 1008.7
20260904135306 26 249 0.0 1.6 0.00 0.00 0.00 94 1008.8
20260904134804 25 246 1.6 4.8 0.00 0.00 0.00 94 1008.6
20260904134303 25 219 0.0 0.0 0.00 0.00 0.00 94 1008.7
20260904133303 24 190 0.0 0.0 0.00 0.00 0.00 94 1008.7
20260904132803 23 190 0.0 0.0 0.00 0.00 0.00 94 1008.7
20260904132306 23 190 0.0 0.0 0.00 0.00 0.00 94 1008.7
20260904131803 23 190 0.0 0.0 0.00 0.00 0.00 94 1008.6
20260904131303 23 190 0.0 0.0 0.00 0.00 0.00 94 1008.5
20260904130803 22 190 0.0 0.0 0.00 0.00 0.00 94 1008.4
20260904125803 22 190 0.0 0.0 0.00 0.00 0.00 98 1008.4
20260904125305 22 171 0.0 0.0 0.00 0.03 0.00 98 1008.4
20260904124803 21 117 0.0 0.0 0.00 0.03 0.00 98 1008.3
20260904124303 21 117 0.0 0.0 0.00 0.03 0.00 98 1008.2
20260904123803 21 117 0.0 0.0 0.00 0.03 0.00 98 1008.1
20260904123303 21 117 0.0 0.0 0.00 0.03 0.00 98 1008.1
20260904122306 21 0 0.0 0.0 0.00 0.03 0.00 98 1008.1
20260904121803 21 0 0.0 0.0 0.00 0.03 0.00 98 1008.0
20260904121303 21 0 0.0 0.0 0.00 0.03 0.00 98 1008.1
20260904120804 20 0 0.0 0.0 0.00 0.03 0.00 98 1008.0
20260904120303 20 0 0.0 0.0 0.00 0.05 0.00 98 1008.0
20260904115803 21 0 0.0 0.0 0.00 0.05 0.00 97 1008.0
20260904114303 21 0 0.0 0.0 0.00 0.05 0.00 97 1008.0
20260904113803 21 0 0.0 0.0 0.00 0.05 0.00 97 1007.9
20260904113303 21 0 0.0 0.0 0.00 0.05 0.00 97 1007.9
20260904112803 21 0 0.0 0.0 0.00 0.05 0.00 97 1007.9
20260904112305 21 0 0.0 0.0 0.00 0.05 0.00 97 1007.9
20260904111303 21 0 0.0 0.0 0.00 0.05 0.00 97 1007.7
20260904110803 21 0 0.0 0.0 0.00 0.05 0.00 97 1007.7
20260904110303 21 0 0.0 0.0 0.00 0.05 0.00 97 1007.7
20260904105803 21 0 0.0 0.0 0.00 0.05 0.00 97 1007.7
20260904105305 21 0 0.0 0.0 0.00 0.05 0.00 97 1007.6
20260904104803 21 0 0.0 0.0 0.00 0.05 0.00 97 1007.6
20260904103803 21 0 0.0 0.0 0.00 0.05 0.00 97 1007.7
20260904103303 21 0 0.0 0.0 0.00 0.05 0.00 97 1007.7
20260904102803 21 0 0.0 0.0 0.00 0.05 0.00 97 1007.7
20260904102306 21 0 0.0 0.0 0.00 0.05 0.00 97 1007.7
20260904101303 21 0 0.0 0.0 0.00 0.05 0.00 97 1007.8
20260904100303 21 0 0.0 0.0 0.00 0.05 0.00 97 1007.7
20260904095803 21 0 0.0 0.0 0.00 0.05 0.00 96 1007.7
20260904095306 21 0 0.0 0.0 0.00 0.05 0.00 96 1007.7
20260904094803 21 0 0.0 0.0 0.00 0.05 0.00 96 1007.7
20260904094303 21 0 0.0 0.0 0.00 0.05 0.00 96 1007.7
20260904093803 21 0 0.0 0.0 0.00 0.05 0.00 96 1007.7
20260904093303 21 0 0.0 0.0 0.00 0.05 0.00 96 1007.7
20260904092306 21 0 0.0 0.0 0.00 0.05 0.00 96 1007.6
20260904091803 21 0 0.0 0.0 0.00 0.05 0.00 96 1007.5
20260904091303 21 0 0.0 0.0 0.00 0.05 0.00 96 1007.4
20260904090303 21 0 0.0 0.0 0.00 0.05 0.00 96 1007.4
20260904085803 21 0 0.0 0.0 0.00 0.05 0.00 89 1007.4
20260904085305 21 0 0.0 0.0 0.00 0.05 0.00 89 1007.3
20260904084803 21 0 0.0 0.0 0.00 0.05 0.00 89 1007.2
20260904084303 21 0 0.0 0.0 0.00 0.05 0.00 89 1007.1
20260904083804 21 0 0.0 0.0 0.00 0.05 0.00 89 1007.1
20260904083303 21 0 0.0 0.0 0.00 0.05 0.00 89 1007.0
20260904082305 21 0 0.0 0.0 0.00 0.05 0.00 89 1007.0
20260904081803 21 0 0.0 0.0 0.00 0.05 0.00 89 1007.1
20260904081303 21 0 0.0 0.0 0.00 0.05 0.00 89 1007.0
20260904080803 22 0 0.0 0.0 0.00 0.05 0.00 89 1007.1
20260904080303 22 0 0.0 0.0 0.00 0.05 0.00 89 1007.0
20260904075803 22 0 0.0 0.0 0.00 0.05 0.00 90 1007.0
20260904075306 22 0 0.0 0.0 0.00 0.05 0.00 90 1007.0
20260904074803 22 0 0.0 0.0 0.00 0.05 0.00 90 1007.1
20260904073803 22 0 0.0 0.0 0.00 0.05 0.00 90 1007.2
20260904073303 22 341 0.0 0.0 0.00 0.05 0.00 90 1007.3
20260904072803 22 351 0.0 0.0 0.00 0.05 0.00 90 1007.3
20260904072306 22 195 0.0 0.0 0.00 0.05 0.00 90 1007.3
20260904071803 22 179 0.0 0.0 0.00 0.05 0.00 90 1007.4
20260904070803 22 206 0.0 0.0 0.00 0.05 0.00 90 1007.4
20260904070303 22 197 0.0 0.0 0.00 0.05 0.00 92 1007.4
20260904065803 22 196 0.0 0.0 0.00 0.05 0.00 100 1007.5
20260904064803 22 189 0.0 0.0 0.00 0.05 0.00 100 1007.6
20260904064302 22 189 0.0 0.0 0.00 0.05 0.00 100 1007.6
20260904063303 22 190 0.0 0.0 0.00 0.05 0.00 100 1007.7
20260904062803 22 188 0.0 0.0 0.00 0.05 0.00 100 1007.6
20260904062306 22 182 0.0 0.0 0.00 0.05 0.00 100 1007.6
20260904061803 23 103 0.0 0.0 0.00 0.05 0.00 100 1007.6
20260904061303 23 117 0.0 0.0 0.00 0.05 0.00 100 1007.6
20260904060803 23 117 0.0 0.0 0.00 0.05 0.00 100 1007.6
20260904060303 23 117 0.0 0.0 0.00 0.05 0.00 100 1007.6
20260904055803 23 117 0.0 0.0 0.00 0.05 0.00 100 1007.5
20260904055306 23 117 0.0 3.2 0.00 0.05 0.00 100 1007.5
20260904054803 23 117 0.0 1.6 0.00 0.05 0.00 100 1007.6
20260904054303 23 117 0.0 4.8 0.00 0.05 0.00 100 1007.6
20260904053803 23 172 1.6 3.2 0.00 0.05 0.00 100 1007.6
20260904053303 23 128 1.6 4.8 0.00 0.05 0.00 100 1007.6
20260904052803 23 128 0.0 3.2 0.00 0.05 0.00 100 1007.6
20260904052306 23 128 0.0 1.6 0.00 0.05 0.00 100 1007.6
20260904051803 23 127 1.6 4.8 0.00 0.05 0.00 100 1007.6
20260904051304 23 59 0.0 4.8 0.00 0.05 0.00 100 1007.6
20260904050810 23 81 1.6 4.8 0.00 0.05 0.00 100 1007.6
20260904045803 23 124 0.0 3.2 0.00 0.05 0.05 100 1007.5
20260904045306 23 124 3.2 4.8 0.00 0.05 0.05 100 1007.5
20260904044803 23 124 1.6 4.8 0.00 0.05 0.05 100 1007.6
20260904044303 23 124 1.6 4.8 0.00 0.05 0.05 100 1007.6
20260904043803 23 124 0.0 1.6 0.00 0.05 0.05 100 1007.6
20260904043303 23 124 0.0 0.0 0.00 0.05 0.05 100 1007.6
20260904042803 23 124 0.0 0.0 0.00 0.05 0.05 100 1007.7
20260904042306 23 124 0.0 3.2 0.00 0.05 0.05 100 1007.6
20260904041803 23 124 0.0 0.0 0.00 0.05 0.05 100 1007.6
20260904041303 23 124 0.0 3.2 0.00 0.05 0.05 100 1007.6
20260904040803 23 124 1.6 3.2 0.00 0.05 0.05 100 1007.6
20260904040303 23 124 0.0 4.8 0.00 0.05 0.05 100 1007.6
20260904035803 23 124 3.2 4.8 0.00 0.05 0.05 100 1007.6
20260904035306 23 124 0.0 3.2 0.00 0.05 0.05 100 1007.7
20260904034803 23 124 1.6 3.2 0.00 0.05 0.05 100 1007.7
20260904033803 24 124 1.6 4.8 0.00 0.05 0.05 100 1007.7
20260904033304 24 124 1.6 4.8 0.00 0.05 0.05 100 1007.6
20260904032803 24 124 1.6 4.8 0.00 0.05 0.05 100 1007.6
20260904032305 24 124 1.6 4.8 0.00 0.05 0.05 100 1007.6
20260904031803 25 91 1.6 8.0 0.00 0.05 0.05 100 1007.6
20260904031304 25 133 4.8 4.8 0.00 0.05 0.05 100 1007.7
20260904030803 25 135 3.2 4.8 0.00 0.05 0.05 100 1007.7
20260904030303 25 135 1.6 4.8 0.00 0.05 0.05 100 1007.7
20260904025804 25 135 1.6 3.2 0.00 0.05 0.05 93 1007.6
20260904024803 25 135 0.0 4.8 0.00 0.05 0.05 93 1007.5
20260904024303 25 168 3.2 12.9 0.00 0.05 0.05 93 1007.4
20260904023803 25 142 0.0 4.8 0.00 0.05 0.05 93 1007.5
20260904023303 25 105 0.0 4.8 0.00 0.05 0.05 93 1007.5
20260904022803 25 151 1.6 8.0 0.00 0.05 0.05 93 1007.4
20260904021303 25 173 0.0 3.2 0.00 0.05 0.05 93 1007.5
20260904020803 25 123 1.6 3.2 0.00 0.05 0.05 93 1007.5
20260904020303 25 117 0.0 4.8 0.00 0.05 0.05 93 1007.5
20260904015803 25 134 1.6 3.2 0.00 0.05 0.05 97 1007.4
20260904015306 25 140 0.0 4.8 0.00 0.05 0.05 97 1007.4
20260904014803 25 140 1.6 4.8 0.00 0.05 0.05 97 1007.4
20260904014303 25 150 1.6 3.2 0.00 0.05 0.05 97 1007.3
20260904013803 26 179 1.6 8.0 0.00 0.05 0.05 97 1007.3
20260904013303 26 142 1.6 9.7 0.00 0.05 0.05 97 1007.3
20260904012803 26 224 0.0 4.8 0.00 0.05 0.05 97 1007.1
20260904012306 26 162 3.2 9.7 0.00 0.05 0.05 97 1006.9
20260904011803 26 137 3.2 12.9 0.00 0.05 0.05 97 1007.0
20260904010803 26 162 1.6 4.8 0.00 0.05 0.05 97 1007.0
20260904010303 26 160 4.8 14.5 0.00 0.05 0.05 95 1007.0
20260904005803 26 147 1.6 4.8 0.00 0.05 0.05 85 1007.1
20260904005306 26 154 1.6 4.8 0.00 0.05 0.05 85 1007.2
20260904004803 26 158 1.6 9.7 0.00 0.05 0.05 85 1007.2
20260904004303 26 139 1.6 8.0 0.00 0.05 0.05 85 1007.2
20260904003804 26 138 3.2 14.5 0.00 0.05 0.05 85 1007.2
20260904003303 27 143 4.8 16.1 0.00 0.05 0.05 85 1007.1
20260904002803 27 127 4.8 16.1 0.00 0.05 0.05 85 1007.2
20260904002306 27 152 4.8 11.3 0.00 0.05 0.05 85 1007.2
20260904001803 27 124 8.0 12.9 0.00 0.05 0.05 85 1007.2
20260904001303 27 170 1.6 11.3 0.00 0.05 0.05 85 1007.3
20260904000803 27 242 4.8 14.5 0.00 0.05 0.05 85 1007.3
20260904000303 27 144 4.8 11.3 0.00 0.05 0.05 85 1007.1
20260903235803 27 149 6.4 14.5 0.00 0.05 0.05 76 1007.1
20260903235305 27 178 8.0 16.1 0.00 0.05 0.05 76 1006.9
20260903234803 27 155 9.7 16.1 0.00 0.05 0.05 76 1006.9
20260903233804 27 191 3.2 12.9 0.00 0.05 0.05 76 1006.8
20260903233303 27 159 8.0 16.1 0.00 0.05 0.05 76 1006.8